Regional Weather Roundup
Issued by NWS

Home | Current Version | Previous Version | Text Only | Print | Product List | Glossary Off
Versions: 1 2 3 4 5 6 7 8 9 10 11 12 13 14 15 16 17 18 19 20 21 22 23 24 25 26 27

000
ASUS45 KBOU 261207
RWRCO

WEATHER ROUNDUP FOR COLORADO
NATIONAL WEATHER SERVICE DENVER/BOULDER CO
600 AM MDT FRI AUG 26 2016

NOTE: "FAIR" INDICATES FEW OR NO CLOUDS BELOW 12000 FEET WITH NO
SIGNIFICANT WEATHER AND/OR OBSTRUCTIONS TO VISIBILITY.

COZ001>005-013-030-031-261300-
...NORTHWEST COLORADO...

CITY           SKY/WX    TMP DP  RH WIND       PRES   REMARKS
CRAIG          FAIR      42  36  79 CALM      30.23R
HAYDEN         FAIR      45  34  65 E7        30.24R
MEEKER         FAIR      42  38  85 VRB3      30.24S
MOUNT WERNER   NOT AVBL
STEAMBOAT SPGS FAIR      43  38  82 CALM      30.26R
WALDEN         FAIR      37  34  87 SE6       30.31S
$$

COZ006>008-011-261300-
...WEST CENTRAL VALLEYS...

CITY           SKY/WX    TMP DP  RH WIND       PRES   REMARKS
GRAND JUNCTION FAIR      52  47  83 E9        30.18R
MONTROSE       FAIR      49  46  90 CALM      30.25S
EAGLE          CLOUDY    45  45 100 NE3       30.31R
RIFLE          FAIR      48  47  96 CALM      30.24R
DELTA          NOT AVBL
NUCLA          FAIR     N/A N/A N/A CALM      30.28R
$$

COZ017>023-064>068-261300-
...SOUTHWEST COLORADO...

CITY           SKY/WX    TMP DP  RH WIND       PRES   REMARKS
DURANGO        CLOUDY    51  47  86 NE3       30.26R
CORTEZ         FAIR      50  49  96 N3        30.23R
PAGOSA SPRINGS MOCLDY    48  47  96 CALM      30.31S
TELLURIDE      FAIR      43  42  95 SE3       30.39R
WOLF CREEK PAS LGT RAIN  34  34 100 SW17G24   30.51R VSB 1/4 WCI  23
$$

COZ009-010-012-014-032>034-037-058>063-261300-
...CENTRAL COLORADO...

CITY           SKY/WX    TMP DP  RH WIND       PRES   REMARKS
ASPEN          CLOUDY    42  40  92 S5        30.32R
BUENA VISTA    CLOUDY    46  44  91 CALM      30.32S
COPPER MTN     CLOUDY    37  34  87 W5        30.48R
BERTHOUD PASS  HAZE      30  18  59 N21       30.47S VSB<1/4 WCI  17
COTTONWOOD PAS CLOUDY    45  37  76 CALM      30.38S
GUNNISON       CLOUDY    46  43  87 N5        30.34F
KREMMLING      FAIR      41  37  87 CALM      30.31S
LEADVILLE      CLOUDY    36  34  92 CALM      30.37S
MONARCH PASS   FOG       34  32  93 SW16      30.57S VSB<1/4 WCI  23
SALIDA         CLOUDY    49  47  93 NW5       30.37S
SUNLIGHT       MOCLDY    39  37  93 NE6       30.46S
WILKERSON PASS FOG       36  34  93 SW8       30.46R VSB 3/4
$$

COZ069>075-261300-
...SAN LUIS VALLEY/SANGRE DE CRISTO MOUNTAINS...

CITY           SKY/WX    TMP DP  RH WIND       PRES   REMARKS
ALAMOSA        FAIR      41  39  93 W5        30.30S
LA VETA PASS   MOCLDY    39  37  93 S7        30.39F FOG
SAGUACHE       FAIR      45  41  87 N7        30.31F
$$

COZ035-036-038>040-261300-
...NORTHERN COLORADO FRONT RANGE...

CITY           SKY/WX    TMP DP  RH WIND       PRES   REMARKS
DENVER INTL AP MOCLDY    55  49  80 S8        30.14R
DMNS CITY PARK   N/A     55  49  79 CALM      30.15R
AURORA         NOT AVBL
FRONT RANGE AP NOT AVBL
ERIE MUNI ARPT FAIR      53  51  92 N6        30.15S
BOULDER MUN AP NOT AVBL
CENTENNIAL     MOCLDY    56  44  64 SW9       30.16R
BROOMFIELD     FAIR      54  50  87 NW14      30.16S
FORT COLLINS   FAIR      52  48  87 NW3       30.16S
LONGMONT       FAIR      56  52  88 NW5       30.17S
$$

COZ041-046-047-076>085-087-088-261300-
...PIKES PEAK/PALMER DIVIDE AND SOUTHERN FOOTHILLS...

CITY           SKY/WX    TMP DP  RH WIND       PRES   REMARKS
COLO. SPRINGS  MOCLDY    53  49  86 E6        30.22S
A. F. ACADEMY  NOT AVBL
SCHRIEVER AFB  NOT AVBL
ELLICOTT       NOT AVBL
FALCON         CLOUDY    49  49  99 S5        30.24S FOG
FORT CARSON    CLOUDY    52  49  89 CALM      30.20S
LIMON          FAIR      54  53  97 SE8       30.19R FOG
MONUMENT HILL  CLOUDY    46  45  93 SW7       30.23F
TRINIDAD       FAIR      55  50  83 W7        30.21F
$$

COZ042>045-048>051-090-091-261300-
...NORTHEAST COLORADO...

CITY           SKY/WX    TMP DP  RH WIND       PRES   REMARKS
GREELEY ARPT   FAIR      52  48  87 N5        30.14F
AKRON          MOCLDY    55  52  89 SE13      30.17F
BURLINGTON     CLOUDY    57  52  83 SE8       30.19S
WRAY           MOCLDY    54  50  87 SE3       30.18R
STERLING       FAIR      59  52  77 S9        30.14S
HOLYOKE        NOT AVBL
FORT MORGAN    CLOUDY    55  53  94 E3        30.15S
$$

COZ086-089-092>099-261300-
...SOUTHEAST COLORADO...

CITY           SKY/WX    TMP DP  RH WIND       PRES   REMARKS
PUEBLO         FAIR      57  52  83 CALM      30.17R
LA JUNTA       FAIR      59  57  93 E7        30.14F
LAMAR          MOCLDY    60  58  92 E7        30.14S
SPRINGFIELD      N/A     58  58 100 SE3       30.17S
$$




USA.gov is the U.S. government's official web portal to all federal, state and local government web resources and services.